This is the latest recevied weather packets stored in our database for station/object NB9X. If no packets are shown the sender has not sent any weather packets the latest 10 day(s).
| Time | Temp. | Humidity | Pressure | Rain* | Wind** | Luminosity | Snow |
|---|---|---|---|---|---|---|---|
| 1788466762 | 30.56° C | 100% | 1011.2 hPa | 0 mm | - | - | - |
| 1788466462 | 30° C | 100% | 1011.3 hPa | 0 mm | - | - | - |
| 1788466162 | 29.44° C | 100% | 1011.5 hPa | 0 mm | - | - | - |
| 1788465862 | 29.44° C | 100% | 1011.6 hPa | 0 mm | - | - | - |
| 1788465562 | 29.44° C | 100% | 1011.7 hPa | 0 mm | - | - | - |
| 1788465262 | 29.44° C | 100% | 1011.8 hPa | 0 mm | - | - | - |
| 1788464962 | 29.44° C | 100% | 1011.8 hPa | 0 mm | - | - | - |
| 1788464662 | 29.44° C | 100% | 1011.9 hPa | 0 mm | - | - | - |
| 1788464362 | 30° C | 100% | 1012.1 hPa | 0 mm | - | - | - |
| 1788464062 | 30° C | 100% | 1012.2 hPa | 0 mm | - | - | - |
| 1788463762 | 30° C | 100% | 1012.3 hPa | 0 mm | - | - | - |
| 1788463462 | 30.56° C | 100% | 1012.3 hPa | 0 mm | - | - | - |
| 1788463162 | 31.11° C | 100% | 1012.2 hPa | 0 mm | - | - | - |
| 1788462862 | 31.11° C | 100% | 1012.2 hPa | 0 mm | - | - | - |
| 1788462562 | 31.67° C | 100% | 1012.3 hPa | 0 mm | - | - | - |
| 1788462262 | 32.78° C | 100% | 1012.3 hPa | 0 mm | - | - | - |
| 1788461962 | 33.33° C | 100% | 1012.1 hPa | 0 mm | - | - | - |
| 1788461662 | 33.89° C | 100% | 1012.2 hPa | 0 mm | - | - | - |
| 1788461362 | 33.89° C | 100% | 1012.2 hPa | 0 mm | - | - | - |
| 1788461062 | 33.33° C | 100% | 1012.3 hPa | 0 mm | - | - | - |
| 1788460762 | 31.67° C | 100% | 1012.3 hPa | 0 mm | - | - | - |
| 1788460462 | 32.78° C | 100% | 1012.3 hPa | 0 mm | - | - | - |
| 1788460162 | 33.89° C | 100% | 1012.3 hPa | 0 mm | - | - | - |
| 1788459862 | 34.44° C | 100% | 1012.3 hPa | 0 mm | - | - | - |
| 1788459562 | 33.33° C | 100% | 1012.3 hPa | 0 mm | - | - | - |
* Rain latest hour (hover to see other rain measurements)
** Current wind speed in m/s (hover to see current wind gust speed)